Location: Taukkyan
(23.1052°N, 94.0030°E)
Time: 11:47:39
(UTC+00:00)

Cosmos 1975 Rocket - Pass Details

Date: 06 July 2020
Orbit: 605 x 633 km, 82.5° (Epoch: 14 August)

Event Time Altitude Azimuth Distance (km) Brightness Sun altitude
Rises 22:25:04 0° 357° (N) 2,892 6.9 -8.8°
Reaches altitude 10° 22:27:17 10° 359° (N) 1,989 6.0 -8.4°
Maximum altitude 22:31:42 77° 84° (E) 644 3.3 -7.5°
Drops below altitude 10° 22:36:07 10° 171° (S) 1,996 5.5 -6.6°
Sets 22:38:21 0° 173° (S) 2,904 6.3 -6.1°
